M I D A S
Marine Information and Data Acquisition System
Tripno 596 of the Zeeleeuw from 2003-09-23 06:59:19 to 2003-09-23 12:19:17
Back to CruiseResearch ActivitiesStationsMapUnderway DataData graphs

EquipmentUnitsComments
TimeDGPSUTC
LatitudeDGPSDM.mWGS84
LongitudeDGPSDM.mWGS84
SpeedMeteo Stationm/sRelative wind speed
DirectionMeteo StationdegRelative wind direction
TemperatureMeteo Stationdeg CelciusAir temperature
PressureMeteo StationPaAtmospheric pressure
HumidityMeteo Station%Relative humidity
Missing or incorrect values are displayed as -999
Metereological data collected by the RV Zeeleeuw from 2003-09-23 06:59:19 to 2003-09-23 12:19:17
                                                                                    Next 1000 lines
Time Latitude Longitude Speed Direction Temperature Pressure Humidity
2003-09-23 06:59:29 51°13.68 2°55.79 6.8 40 13.8 101290 56
2003-09-23 06:59:35 51°13.68 2°55.79 10.1 306 13.8 101290 56
2003-09-23 06:59:39 51°13.68 2°55.79 8.3 227 13.8 101300 55
2003-09-23 06:59:45 51°13.68 2°55.79 7.3 326 13.8 101300 55
2003-09-23 06:59:49 51°13.69 2°55.79 8.1 337 13.8 101300 56
2003-09-23 06:59:53 51°13.69 2°55.79 7.3 328 13.8 101300 56
2003-09-23 06:59:59 51°13.7 2°55.78 7.7 347 13.8 101290 56
2003-09-23 07:00:03 51°13.7 2°55.78 9.4 9 13.8 101290 56
2003-09-23 07:00:07 51°13.71 2°55.77 8.5 360 13.8 101290 55
2003-09-23 07:00:13 51°13.71 2°55.76 9.5 358 13.8 101290 55
2003-09-23 07:00:19 51°13.72 2°55.75 6.6 354 13.8 101280 55
2003-09-23 07:00:23 51°13.72 2°55.75 7 11 13.8 101280 55
2003-09-23 07:00:27 51°13.73 2°55.74 8.4 15 13.8 101280 56
2003-09-23 07:00:33 51°13.73 2°55.73 7.6 12 13.8 101280 56
2003-09-23 07:00:39 51°13.74 2°55.72 9.1 5 13.8 101290 56
2003-09-23 07:00:43 51°13.75 2°55.72 9.3 360 13.8 101290 56
2003-09-23 07:00:47 51°13.75 2°55.71 8.5 357 13.8 101290 56
2003-09-23 07:00:53 51°13.76 2°55.7 9.3 358 13.8 101290 56
2003-09-23 07:00:59 51°13.76 2°55.69 7.5 1 13.8 101290 57
2003-09-23 07:01:03 51°13.77 2°55.69 10.1 5 13.8 101290 57
2003-09-23 07:01:09 51°13.78 2°55.68 8.9 10 13.8 101290 57
2003-09-23 07:01:13 51°13.78 2°55.68 8.1 3 13.8 101290 57
2003-09-23 07:01:17 51°13.79 2°55.67 9.2 2 13.8 101290 57
2003-09-23 07:01:23 51°13.8 2°55.66 10 5 13.8 101290 57
2003-09-23 07:01:27 51°13.8 2°55.66 8.6 4 13.8 101290 57
2003-09-23 07:01:33 51°13.81 2°55.65 8.4 9 13.8 101290 57
2003-09-23 07:01:39 51°13.82 2°55.65 9.7 1 13.8 101290 58
2003-09-23 07:01:43 51°13.82 2°55.64 10.5 3 13.8 101290 58
2003-09-23 07:01:47 51°13.83 2°55.64 10.4 354 13.8 101290 57
2003-09-23 07:01:53 51°13.83 2°55.63 10.2 357 13.8 101290 57
2003-09-23 07:01:59 51°13.84 2°55.63 9.8 353 13.8 101280 58
2003-09-23 07:02:03 51°13.85 2°55.62 10.3 5 13.8 101280 58
2003-09-23 07:02:07 51°13.85 2°55.62 8.8 355 13.8 101290 57
2003-09-23 07:02:13 51°13.86 2°55.61 8.3 356 13.8 101290 57
2003-09-23 07:02:19 51°13.87 2°55.61 9.2 349 13.8 101290 58
2003-09-23 07:02:23 51°13.88 2°55.6 8.9 357 13.8 101290 58
2003-09-23 07:02:29 51°13.88 2°55.6 8.4 351 13.8 101280 59
2003-09-23 07:02:33 51°13.89 2°55.59 7.5 346 13.8 101280 59
2003-09-23 07:02:39 51°13.9 2°55.59 7.5 338 13.8 101290 59
2003-09-23 07:02:43 51°13.9 2°55.58 9.2 4 13.8 101290 59
2003-09-23 07:02:49 51°13.91 2°55.58 8.9 1 13.9 101290 59
2003-09-23 07:02:53 51°13.92 2°55.57 9.3 341 13.9 101290 59
2003-09-23 07:02:59 51°13.93 2°55.57 11.4 356 13.9 101290 59
2003-09-23 07:03:03 51°13.93 2°55.56 10.3 357 13.9 101290 59
2003-09-23 07:03:07 51°13.94 2°55.56 9.3 353 13.9 101290 60
2003-09-23 07:03:13 51°13.95 2°55.55 10.4 337 13.9 101290 60
2003-09-23 07:03:19 51°13.96 2°55.54 11.2 4 13.8 101290 59
2003-09-23 07:03:23 51°13.96 2°55.54 10 345 13.8 101290 59
2003-09-23 07:03:29 51°13.97 2°55.53 8.6 345 13.9 101280 59
2003-09-23 07:03:33 51°13.98 2°55.53 9.7 1 13.9 101280 59
2003-09-23 07:03:39 51°13.99 2°55.52 10.6 355 13.8 101280 58
2003-09-23 07:03:43 51°13.99 2°55.52 13.8 354 13.8 101280 58
2003-09-23 07:03:47 51°14 2°55.52 12 337 13.8 101270 58
2003-09-23 07:03:53 51°14.01 2°55.51 13.4 350 13.8 101270 58
2003-09-23 07:03:59 51°14.02 2°55.5 13.6 351 13.8 101280 59
2003-09-23 07:04:03 51°14.02 2°55.5 13.8 360 13.8 101280 59
2003-09-23 07:04:07 51°14.03 2°55.49 14.3 352 13.9 101290 60
2003-09-23 07:04:13 51°14.04 2°55.49 15.2 352 13.9 101290 60
2003-09-23 07:04:19 51°14.05 2°55.48 14.6 353 13.9 101260 59
2003-09-23 07:04:23 51°14.05 2°55.48 13.1 348 13.9 101260 59
2003-09-23 07:04:27 51°14.06 2°55.47 14.1 348 13.8 101270 58
2003-09-23 07:04:33 51°14.07 2°55.46 13.3 352 13.8 101270 58
2003-09-23 07:04:39 51°14.08 2°55.46 12.6 348 13.8 101270 58
2003-09-23 07:04:43 51°14.09 2°55.45 13.1 346 13.8 101270 58
2003-09-23 07:04:49 51°14.09 2°55.45 12.3 345 13.8 101270 60
2003-09-23 07:04:53 51°14.1 2°55.44 12.1 350 13.8 101270 60
2003-09-23 07:04:59 51°14.11 2°55.43 11.7 349 13.9 101260 60
2003-09-23 07:05:03 51°14.12 2°55.43 11.7 351 13.9 101260 60
2003-09-23 07:05:07 51°14.12 2°55.42 13.5 348 13.9 101270 61
2003-09-23 07:05:13 51°14.13 2°55.41 13.4 350 13.9 101270 61
2003-09-23 07:05:19 51°14.15 2°55.41 12.3 352 13.9 101270 62
2003-09-23 07:05:23 51°14.15 2°55.4 12.6 355 13.9 101270 62
2003-09-23 07:05:29 51°14.16 2°55.39 12.1 354 13.9 101280 61
2003-09-23 07:05:33 51°14.17 2°55.38 13.6 355 13.9 101280 61
2003-09-23 07:05:39 51°14.18 2°55.37 13.5 354 13.9 101270 59
2003-09-23 07:05:43 51°14.19 2°55.36 13.3 351 13.9 101270 59
2003-09-23 07:05:47 51°14.2 2°55.36 14.6 356 13.9 101260 59
2003-09-23 07:05:53 51°14.21 2°55.34 16 353 13.9 101260 59
2003-09-23 07:05:59 51°14.22 2°55.33 14.5 355 13.9 101270 60
2003-09-23 07:06:03 51°14.23 2°55.32 14 357 13.9 101270 60
2003-09-23 07:06:09 51°14.24 2°55.31 13.9 355 13.9 101270 59
2003-09-23 07:06:13 51°14.24 2°55.3 15.1 3 13.9 101270 59
2003-09-23 07:06:19 51°14.25 2°55.28 14.7   13.9 101270 60
2003-09-23 07:06:23 51°14.26 2°55.27 15.1 3 13.9 101270 60
2003-09-23 07:06:29 51°14.27 2°55.25 14.1 358 13.9 101260 58
2003-09-23 07:06:33 51°14.28 2°55.24 13.5   13.9 101260 58
2003-09-23 07:06:39 51°14.29 2°55.22 14.8 3 13.8 101270 59
2003-09-23 07:06:43 51°14.29 2°55.21 14.9 6 13.8 101270 59
2003-09-23 07:06:49 51°14.3 2°55.19 13.5   13.8 101270 59
2003-09-23 07:06:53 51°14.31 2°55.18 14.2 3 13.8 101270 59
2003-09-23 07:06:59 51°14.32 2°55.16 14.8 358 13.8 101280 59
2003-09-23 07:07:03 51°14.33 2°55.14 15 360 13.8 101280 59
2003-09-23 07:07:07 51°14.33 2°55.13 13.2 4 13.8 101270 60
2003-09-23 07:07:13 51°14.34 2°55.11 14.3 2 13.8 101270 60
2003-09-23 07:07:19 51°14.35 2°55.09 14.5 359 13.9 101270 60
2003-09-23 07:07:23 51°14.36 2°55.08 15.2 359 13.9 101270 60
2003-09-23 07:07:29 51°14.37 2°55.06 13.9 359 13.8 101280 59
2003-09-23 07:07:33 51°14.38 2°55.05 14.2 1 13.8 101280 59
2003-09-23 07:07:39 51°14.39 2°55.03 16.7 357 13.8 101270 59
2003-09-23 07:07:43 51°14.4 2°55.01 14.7 4 13.8 101270 59
2003-09-23 07:07:47 51°14.4 2°55 16.3 4 13.8 101280 58
2003-09-23 07:07:53 51°14.41 2°54.97 15.6 10 13.8 101280 58
2003-09-23 07:07:59 51°14.42 2°54.95 17 13 13.8 101270 59
2003-09-23 07:08:03 51°14.42 2°54.93 15.8 16 13.8 101270 59
2003-09-23 07:08:09 51°14.43 2°54.91 14.8 11 13.9 101260 61
2003-09-23 07:08:13 51°14.43 2°54.89 15.5 16 13.9 101260 61
2003-09-23 07:08:19 51°14.44 2°54.87 15.7 12 13.8 101280 58
2003-09-23 07:08:23 51°14.44 2°54.85 14.9 13 13.8 101280 58
2003-09-23 07:08:27 51°14.44 2°54.83 15.5 20 13.8 101270 58
2003-09-23 07:08:33 51°14.45 2°54.81 15.2 18 13.8 101270 58
2003-09-23 07:08:39 51°14.45 2°54.78 15.2 24 13.8 101280 59
2003-09-23 07:08:43 51°14.45 2°54.76 15.5 24 13.8 101280 59
2003-09-23 07:08:49 51°14.45 2°54.73 15.3 24 13.8 101300 56
2003-09-23 07:08:53 51°14.45 2°54.71 15.1 30 13.8 101300 56
2003-09-23 07:08:59 51°14.45 2°54.68 15.2 31 13.8 101270 56
2003-09-23 07:09:03 51°14.45 2°54.66 14.3 30 13.8 101270 56
2003-09-23 07:09:07 51°14.45 2°54.64 14.8 27 13.8 101280 57
2003-09-23 07:09:11 51°14.45 2°54.62 15.1 32 13.8 101280 57
2003-09-23 07:09:19 51°14.45 2°54.59 15.6 35 13.8 101270 59
2003-09-23 07:09:23 51°14.44 2°54.57 13.8 35 13.8 101270 59
2003-09-23 07:09:27 51°14.44 2°54.55 14.6 38 13.8 101270 62
2003-09-23 07:09:33 51°14.44 2°54.52 14.8 32 13.8 101270 62
2003-09-23 07:09:39 51°14.43 2°54.49 14.2 38 13.8 101300 58
2003-09-23 07:09:43 51°14.43 2°54.47 14.7 33 13.8 101300 58
2003-09-23 07:09:47 51°14.42 2°54.45 16.2 36 13.8 101260 57
2003-09-23 07:09:53 51°14.42 2°54.42 15.5 39 13.8 101260 57
2003-09-23 07:09:59 51°14.41 2°54.39 15.8 37 13.8 101270 58
2003-09-23 07:10:03 51°14.4 2°54.37 16.2 48 13.8 101270 58
2003-09-23 07:10:09 51°14.39 2°54.34 13.9 39 13.8 101260 60
2003-09-23 07:10:13 51°14.39 2°54.32 14.4 43 13.8 101260 60
2003-09-23 07:10:19 51°14.38 2°54.29 14 50 13.8 101270 58
2003-09-23 07:10:23 51°14.37 2°54.28 15 49 13.8 101270 58
2003-09-23 07:10:27 51°14.36 2°54.26 15 53 13.8 101270 56
2003-09-23 07:10:33 51°14.35 2°54.23 13.4 56 13.8 101270 56
2003-09-23 07:10:39 51°14.34 2°54.2 12.6 52 13.7 101270 57
2003-09-23 07:10:43 51°14.33 2°54.18 13 53 13.7 101270 57
2003-09-23 07:10:49 51°14.32 2°54.15 13.4 54 13.7 101270 58
2003-09-23 07:10:53 51°14.32 2°54.13 14.6 47 13.7 101270 58
2003-09-23 07:10:59 51°14.31 2°54.1 14.2 49 13.7 101260 57
2003-09-23 07:11:03 51°14.3 2°54.08 12.4 45 13.7 101260 57
2003-09-23 07:11:09 51°14.29 2°54.05 15.1 50 13.7 101270 60
2003-09-23 07:11:13 51°14.29 2°54.03 14.9 40 13.7 101270 60
2003-09-23 07:11:19 51°14.28 2°54 16.4 48 13.8 101270 63
2003-09-23 07:11:23 51°14.27 2°53.97 14.9 35 13.8 101270 63
2003-09-23 07:11:29 51°14.26 2°53.95 14.1 41 13.8 101270 63
2003-09-23 07:11:33 51°14.25 2°53.93 14.8 45 13.8 101270 63
2003-09-23 07:11:39 51°14.24 2°53.9 14.5 40 13.8 101270 62
2003-09-23 07:11:43 51°14.23 2°53.88 14.5 50 13.8 101270 62
2003-09-23 07:11:49 51°14.22 2°53.85 12.2 45 13.8 101270 59
2003-09-23 07:11:53 51°14.22 2°53.83 12.8 39 13.8 101270 59
2003-09-23 07:11:59 51°14.21 2°53.8 12.7 52 13.8 101270 61
2003-09-23 07:12:03 51°14.2 2°53.78 12.6 40 13.8 101270 61
2003-09-23 07:12:07 51°14.19 2°53.76 14.9 38 13.8 101280 60
2003-09-23 07:12:13 51°14.18 2°53.73 14.8 48 13.8 101280 60
2003-09-23 07:12:19 51°14.17 2°53.7 15.2 56 13.8 101280 61
2003-09-23 07:12:23 51°14.16 2°53.68 15.4 53 13.8 101280 61
2003-09-23 07:12:27 51°14.15 2°53.66 15.4 56 13.8 101280 60
2003-09-23 07:12:33 51°14.14 2°53.63 15.5 51 13.8 101280 60
2003-09-23 07:12:39 51°14.13 2°53.59 15.1 56 13.8 101270 61
2003-09-23 07:12:43 51°14.13 2°53.57 13.9 57 13.8 101270 61
2003-09-23 07:12:47 51°14.12 2°53.55 14.2 56 13.8 101270 63
2003-09-23 07:12:51 51°14.11 2°53.53 14.6 56 13.8 101270 63
2003-09-23 07:12:59 51°14.1 2°53.48 14.6 55 13.8 101260 63
2003-09-23 07:13:03 51°14.09 2°53.46 15.2 57 13.8 101260 63
2003-09-23 07:13:07 51°14.08 2°53.44 14.5 55 13.8 101280 61
2003-09-23 07:13:13 51°14.07 2°53.41 14.6 59 13.8 101280 61
2003-09-23 07:13:19 51°14.06 2°53.37 14.7 51 13.8 101280 60
2003-09-23 07:13:23 51°14.05 2°53.35 14.8 44 13.8 101280 60
2003-09-23 07:13:27 51°14.05 2°53.33 15.7 45 13.8 101270 59
2003-09-23 07:13:33 51°14.03 2°53.29 16.2 46 13.8 101270 59
2003-09-23 07:13:39 51°14.02 2°53.26 16 44 13.8 101270 60
2003-09-23 07:13:43 51°14.02 2°53.24 16.8 50 13.8 101270 60
2003-09-23 07:13:47 51°14.01 2°53.22 16.1 44 13.8 101280 63
2003-09-23 07:13:53 51°14 2°53.18 16.2 52 13.8 101280 63
2003-09-23 07:13:59 51°13.99 2°53.15 15.3 50 13.8 101290 60
2003-09-23 07:14:03 51°13.98 2°53.13 15.2 57 13.8 101290 60
2003-09-23 07:14:07 51°13.97 2°53.1 15.1 50 13.8 101270 59
2003-09-23 07:14:11 51°13.96 2°53.08 14.6 42 13.8 101270 59
2003-09-23 07:14:19 51°13.95 2°53.04 16.3 43 13.8 101260 62
2003-09-23 07:14:23 51°13.94 2°53.02 14.3 39 13.8 101260 62
2003-09-23 07:14:27 51°13.93 2°52.99 14.7 36 13.8 101270 63
2003-09-23 07:14:33 51°13.92 2°52.96 15.8 41 13.8 101270 63
2003-09-23 07:14:39 51°13.91 2°52.93 14.6 48 13.8 101290 62
2003-09-23 07:14:43 51°13.9 2°52.9 12.9 41 13.8 101290 62
2003-09-23 07:14:49 51°13.89 2°52.87 14.4 37 13.8 101270 61
2003-09-23 07:14:53 51°13.89 2°52.85 15.8 44 13.8 101270 61
2003-09-23 07:14:59 51°13.87 2°52.82 14.8 41 13.8 101290 58
2003-09-23 07:15:03 51°13.87 2°52.79 13.3 39 13.8 101290 58
2003-09-23 07:15:07 51°13.86 2°52.77 13.7 36 13.7 101280 59
2003-09-23 07:15:13 51°13.85 2°52.74 13.3 43 13.7 101280 59
2003-09-23 07:15:19 51°13.84 2°52.71 16.5 54 13.7 101290 59
2003-09-23 07:15:23 51°13.83 2°52.68 14.7 49 13.7 101290 59
2003-09-23 07:15:27 51°13.82 2°52.66 14.7 58 13.7 101290 58
2003-09-23 07:15:33 51°13.81 2°52.63 13.3 45 13.7 101290 58
2003-09-23 07:15:39 51°13.8 2°52.6 15.4 50 13.7 101270 60
2003-09-23 07:15:43 51°13.79 2°52.57 15.3 48 13.7 101270 60
2003-09-23 07:15:49 51°13.78 2°52.54 14.7 54 13.8 101270 61
2003-09-23 07:15:53 51°13.77 2°52.52 15.4 51 13.8 101270 61
2003-09-23 07:15:59 51°13.76 2°52.48 13.8 37 13.8 101280 59
2003-09-23 07:16:03 51°13.75 2°52.47 17 48 13.8 101280 59
2003-09-23 07:16:09 51°13.74 2°52.43 15.6 42 13.8 101280 60
2003-09-23 07:16:13 51°13.73 2°52.41 15.6 48 13.8 101280 60
2003-09-23 07:16:19 51°13.72 2°52.38 14.3 40 13.7 101300 57
2003-09-23 07:16:23 51°13.71 2°52.35 15.7 38 13.7 101300 57
2003-09-23 07:16:29 51°13.7 2°52.32 12.5 37 13.8 101290 59
2003-09-23 07:16:33 51°13.7 2°52.3 15 41 13.8 101290 59
2003-09-23 07:16:39 51°13.69 2°52.26 15.5 38 13.8 101270 60
2003-09-23 07:16:43 51°13.68 2°52.24 16.2 49 13.8 101270 60
2003-09-23 07:16:47 51°13.67 2°52.22 15 52 13.7 101290 59
2003-09-23 07:16:53 51°13.66 2°52.19 14.5 47 13.7 101290 59
2003-09-23 07:16:59 51°13.65 2°52.15 13.7 41 13.8 101290 60
2003-09-23 07:17:03 51°13.64 2°52.13 15.2 48 13.8 101290 60
2003-09-23 07:17:07 51°13.63 2°52.11 15 42 13.8 101280 59
2003-09-23 07:17:13 51°13.62 2°52.08 14.7 48 13.8 101280 59
2003-09-23 07:17:19 51°13.61 2°52.04 13.9 39 13.7 101300 58
2003-09-23 07:17:23 51°13.6 2°52.02 14.7 52 13.7 101300 58
2003-09-23 07:17:27 51°13.6 2°52 13 39 13.7 101290 58
2003-09-23 07:17:33 51°13.58 2°51.97 14.9 56 13.7 101290 58
2003-09-23 07:17:39 51°13.57 2°51.93 14.1 44 13.7 101280 57
2003-09-23 07:17:43 51°13.56 2°51.91 14 54 13.7 101280 57
2003-09-23 07:17:49 51°13.55 2°51.88 15.3 58 13.7 101300 57
2003-09-23 07:17:53 51°13.54 2°51.86 12.3 54 13.7 101300 57
2003-09-23 07:17:59 51°13.53 2°51.83 15.6 49 13.7 101290 59
2003-09-23 07:18:03 51°13.52 2°51.8 14.7 62 13.7 101290 59
2003-09-23 07:18:09 51°13.51 2°51.77 16.7 48 13.7 101290 59
2003-09-23 07:18:13 51°13.51 2°51.75 17.1 48 13.7 101290 59
2003-09-23 07:18:19 51°13.49 2°51.71 15.7 40 13.7 101290 61
2003-09-23 07:18:23 51°13.49 2°51.69 15.2 52 13.7 101290 61
2003-09-23 07:18:27 51°13.48 2°51.67 17.2 40 13.8 101290 64
2003-09-23 07:18:33 51°13.47 2°51.64 17.2 50 13.8 101290 64
2003-09-23 07:18:39 51°13.46 2°51.61 15.7 49 13.8 101270 61
2003-09-23 07:18:43 51°13.45 2°51.58 14.9 46 13.8 101270 61
2003-09-23 07:18:47 51°13.44 2°51.56 15.8 44 13.8 101280 64
2003-09-23 07:18:53 51°13.43 2°51.53 15.7 46 13.8 101280 64
2003-09-23 07:18:59 51°13.42 2°51.5 15.3 47 13.8 101280 59
2003-09-23 07:19:03 51°13.41 2°51.47 15.2 48 13.8 101280 59
2003-09-23 07:19:07 51°13.4 2°51.45 14.7 48 13.7 101280 57
2003-09-23 07:19:13 51°13.39 2°51.42 14 45 13.7 101280 57
2003-09-23 07:19:19 51°13.38 2°51.38 14.3 52 13.7 101280 60
2003-09-23 07:19:23 51°13.37 2°51.36 14 37 13.7 101280 60
2003-09-23 07:19:27 51°13.36 2°51.34 15.2 39 13.7 101280 59
2003-09-23 07:19:33 51°13.35 2°51.31 15.2 39 13.7 101280 59
2003-09-23 07:19:39 51°13.34 2°51.27 15.2 48 13.6 101290 58
2003-09-23 07:19:43 51°13.34 2°51.25 15.9 45 13.6 101290 58
2003-09-23 07:19:47 51°13.33 2°51.23 15.1 47 13.7 101300 63
2003-09-23 07:19:53 51°13.32 2°51.2 15.5 43 13.7 101300 63
2003-09-23 07:19:59 51°13.31 2°51.16 16.6 50 13.8 101290 64
2003-09-23 07:20:03 51°13.3 2°51.14 14.1 38 13.8 101290 64
2003-09-23 07:20:09 51°13.29 2°51.11 15.9 39 13.7 101270 63
2003-09-23 07:20:13 51°13.28 2°51.08 14.2 45 13.7 101270 63
2003-09-23 07:20:19 51°13.27 2°51.05 15.6 43 13.8 101280 62
2003-09-23 07:20:23 51°13.26 2°51.03 14.7 48 13.8 101280 62
2003-09-23 07:20:27 51°13.25 2°51.01 14.8 57 13.7 101280 59
2003-09-23 07:20:33 51°13.24 2°50.98 15.1 61 13.7 101280 59
2003-09-23 07:20:39 51°13.23 2°50.94 14.2 47 13.7 101290 60
2003-09-23 07:20:43 51°13.22 2°50.92 15.5 55 13.7 101290 60
2003-09-23 07:20:47 51°13.22 2°50.9 15 47 13.7 101280 60
2003-09-23 07:20:53 51°13.2 2°50.86 16.9 56 13.7 101280 60
2003-09-23 07:20:59 51°13.19 2°50.83 15.6 53 13.7 101270 59
2003-09-23 07:21:03 51°13.19 2°50.81 16.4 55 13.7 101270 59
2003-09-23 07:21:07 51°13.18 2°50.79 17 57 13.7 101290 61
2003-09-23 07:21:13 51°13.17 2°50.75 17 44 13.7 101290 61
2003-09-23 07:21:19 51°13.16 2°50.72 17.4 49 13.7 101290 61
2003-09-23 07:21:23 51°13.15 2°50.7 16.5 49 13.7 101290 61
2003-09-23 07:21:27 51°13.14 2°50.68 15.9 52 13.7 101290 62
2003-09-23 07:21:31 51°13.13 2°50.65 16.1 51 13.7 101290 62
2003-09-23 07:21:39 51°13.12 2°50.61 15.2 48 13.7 101280 61
2003-09-23 07:21:43 51°13.11 2°50.59 16.5 48 13.7 101280 61
2003-09-23 07:21:47 51°13.1 2°50.57 14.4 52 13.7 101280 59
2003-09-23 07:21:53 51°13.09 2°50.53 14.9 48 13.7 101280 59
2003-09-23 07:21:59 51°13.08 2°50.5 13.4 56 13.7 101270 59
2003-09-23 07:22:03 51°13.07 2°50.48 14.8 48 13.7 101270 59
2003-09-23 07:22:07 51°13.07 2°50.46 15.9 48 13.7 101290 60
2003-09-23 07:22:13 51°13.06 2°50.42 16.4 49 13.7 101290 60
2003-09-23 07:22:19 51°13.04 2°50.39 17.6 58 13.7 101280 59
2003-09-23 07:22:23 51°13.04 2°50.37 16.1 52 13.7 101280 59
2003-09-23 07:22:29 51°13.03 2°50.33 14.9 54 13.7 101290 61
2003-09-23 07:22:33 51°13.02 2°50.31 15.5 63 13.7 101290 61
2003-09-23 07:22:39 51°13.01 2°50.28 14.8 57 13.7 101290 60
2003-09-23 07:22:43 51°13 2°50.26 13.9 48 13.7 101290 60
2003-09-23 07:22:49 51°12.99 2°50.23 14.1 39 13.7 101280 60
2003-09-23 07:22:53 51°12.98 2°50.2 14.5 46 13.7 101280 60
2003-09-23 07:22:59 51°12.97 2°50.17 14.6 39 13.8 101280 64
2003-09-23 07:23:03 51°12.96 2°50.15 15 58 13.8 101280 64
2003-09-23 07:23:09 51°12.95 2°50.11 14.7 59 13.8 101300 63
2003-09-23 07:23:13 51°12.94 2°50.09 14.4 64 13.8 101300 63
2003-09-23 07:23:19 51°12.93 2°50.06 13.8 48 13.8 101300 63
2003-09-23 07:23:23 51°12.92 2°50.04 14.7 64 13.8 101300 63
2003-09-23 07:23:29 51°12.91 2°50 15.2 57 13.8 101300 63
2003-09-23 07:23:33 51°12.91 2°49.98 15.8 58 13.8 101300 63
2003-09-23 07:23:39 51°12.89 2°49.95 17.2 64 13.8 101300 63
2003-09-23 07:23:43 51°12.89 2°49.92 16 53 13.8 101300 63
2003-09-23 07:23:49 51°12.88 2°49.89 15.6 48 13.8 101280 65
2003-09-23 07:23:53 51°12.87 2°49.87 15.9 44 13.8 101280 65
2003-09-23 07:23:59 51°12.86 2°49.84 17.9 45 13.8 101290 62
2003-09-23 07:24:03 51°12.85 2°49.81 17.1 49 13.8 101290 62
2003-09-23 07:24:09 51°12.84 2°49.78 16.6 45 13.8 101270 61
2003-09-23 07:24:13 51°12.83 2°49.76 15.9 53 13.8 101270 61
2003-09-23 07:24:19 51°12.82 2°49.73 16.4 46 13.8 101280 64
2003-09-23 07:24:23 51°12.81 2°49.7 14.5 44 13.8 101280 64
2003-09-23 07:24:27 51°12.8 2°49.68 15.9 42 13.8 101290 60
2003-09-23 07:24:33 51°12.79 2°49.65 15.7 42 13.8 101290 60
2003-09-23 07:24:39 51°12.78 2°49.62 15.9 43 13.7 101280 57
2003-09-23 07:24:43 51°12.77 2°49.6 15.3 39 13.7 101280 57
2003-09-23 07:24:49 51°12.76 2°49.56 15.8 45 13.7 101290 60
2003-09-23 07:24:53 51°12.76 2°49.54 14.6 33 13.7 101290 60
2003-09-23 07:24:59 51°12.74 2°49.51 14.7 42 13.7 101300 59
2003-09-23 07:25:03 51°12.74 2°49.49 15.5 43 13.7 101300 59
2003-09-23 07:25:07 51°12.73 2°49.46 16.9 47 13.7 101300 60
2003-09-23 07:25:13 51°12.72 2°49.43 15.6 45 13.7 101300 60
2003-09-23 07:25:19 51°12.71 2°49.4 16.5 49 13.7 101300 60
2003-09-23 07:25:23 51°12.7 2°49.38 15.9 47 13.7 101300 60
2003-09-23 07:25:27 51°12.69 2°49.35 16.1 53 13.7 101300 59
2003-09-23 07:25:33 51°12.68 2°49.32 14.7 49 13.7 101300 59
2003-09-23 07:25:39 51°12.67 2°49.29 15.3 51 13.7 101290 61
2003-09-23 07:25:43 51°12.66 2°49.27 13.6 49 13.7 101290 61
2003-09-23 07:25:49 51°12.65 2°49.24 12.3 52 13.7 101280 59
2003-09-23 07:25:53 51°12.64 2°49.22 13.9 59 13.7 101280 59
2003-09-23 07:25:59 51°12.63 2°49.18 14.6 42 13.7 101280 58
2003-09-23 07:26:03 51°12.62 2°49.16 17.2 48 13.7 101280 58
2003-09-23 07:26:09 51°12.61 2°49.13 14.7 48 13.7 101280 58
2003-09-23 07:26:13 51°12.6 2°49.11 15.5 54 13.7 101280 58
2003-09-23 07:26:19 51°12.59 2°49.08 13.6 52 13.7 101290 63
2003-09-23 07:26:23 51°12.58 2°49.06 14.9 60 13.7 101290 63
2003-09-23 07:26:27 51°12.57 2°49.03 16.6 60 13.8 101290 60
2003-09-23 07:26:33 51°12.56 2°49 14.8 54 13.8 101290 60
2003-09-23 07:26:39 51°12.55 2°48.97 15.8 63 13.7 101290 61
2003-09-23 07:26:43 51°12.54 2°48.95 16.9 52 13.7 101290 61
2003-09-23 07:26:47 51°12.53 2°48.93 14.3 61 13.7 101310 60
2003-09-23 07:26:53 51°12.52 2°48.9 13.3 53 13.7 101310 60
2003-09-23 07:26:59 51°12.5 2°48.87 15.4 58 13.7 101290 60
2003-09-23 07:27:03 51°12.5 2°48.84 13.6 55 13.7 101290 60
2003-09-23 07:27:09 51°12.48 2°48.81 14.7 56 13.7 101290 58
2003-09-23 07:27:13 51°12.48 2°48.79 14.1 60 13.7 101290 58
2003-09-23 07:27:19 51°12.46 2°48.76 13.7 52 13.7 101290 59
2003-09-23 07:27:23 51°12.46 2°48.74 14.8 53 13.7 101290 59
2003-09-23 07:27:27 51°12.45 2°48.72 15.6 45 13.7 101290 59
2003-09-23 07:27:33 51°12.43 2°48.69 16.8 54 13.7 101290 59
2003-09-23 07:27:39 51°12.42 2°48.66 14.5 51 13.7 101290 59
2003-09-23 07:27:43 51°12.41 2°48.64 15.1 52 13.7 101290 59
2003-09-23 07:27:49 51°12.4 2°48.6 12.6 57 13.7 101300 61
2003-09-23 07:27:53 51°12.39 2°48.58 15.4 54 13.7 101300 61
2003-09-23 07:27:59 51°12.38 2°48.55 13.4 58 13.7 101300 61
2003-09-23 07:28:03 51°12.37 2°48.53 13.7 54 13.7 101300 61
2003-09-23 07:28:09 51°12.36 2°48.5 12.8 54 13.7 101300 59
2003-09-23 07:28:13 51°12.35 2°48.48 12.5 52 13.7 101300 59
2003-09-23 07:28:19 51°12.34 2°48.45 13.5 54 13.7 101310 61
2003-09-23 07:28:23 51°12.33 2°48.42 13.6 45 13.7 101310 61
2003-09-23 07:28:27 51°12.32 2°48.4 14.1 48 13.7 101300 60
2003-09-23 07:28:33 51°12.31 2°48.37 14.5 53 13.7 101300 60
2003-09-23 07:28:39 51°12.29 2°48.34 15 48 13.7 101300 62
2003-09-23 07:28:43 51°12.29 2°48.32 15.9 55 13.7 101300 62
2003-09-23 07:28:47 51°12.28 2°48.3 16.8 55 13.7 101310 62
2003-09-23 07:28:53 51°12.27 2°48.27 14.8 53 13.7 101310 62
2003-09-23 07:28:59 51°12.25 2°48.24 13.1 52 13.7 101310 62
2003-09-23 07:29:03 51°12.25 2°48.22 13.5 48 13.7 101310 62
2003-09-23 07:29:07 51°12.24 2°48.19 15.3 51 13.7 101310 61
2003-09-23 07:29:13 51°12.22 2°48.16 13.7 59 13.7 101310 61
2003-09-23 07:29:19 51°12.21 2°48.13 12.1 39 13.7 101290 62
2003-09-23 07:29:23 51°12.2 2°48.11 14.7 44 13.7 101290 62
2003-09-23 07:29:29 51°12.19 2°48.08 13.8 47 13.8 101310 63
2003-09-23 07:29:31 51°12.19 2°48.07 15.1 49 13.8 101310 63
2003-09-23 07:29:39 51°12.17 2°48.02 14 45 13.7 101310 64
2003-09-23 07:29:43 51°12.16 2°48 12.8 35 13.7 101310 64
2003-09-23 07:29:47 51°12.15 2°47.98 14.6 53 13.8 101310 63
2003-09-23 07:29:53 51°12.14 2°47.95 12.9 40 13.8 101310 63
2003-09-23 07:29:59 51°12.13 2°47.91 14 39 13.7 101310 59
2003-09-23 07:30:03 51°12.12 2°47.89 13.8 48 13.7 101310 59
2003-09-23 07:30:07 51°12.11 2°47.87 13.8 48 13.7 101300 61
2003-09-23 07:30:13 51°12.1 2°47.84 15.1 40 13.7 101300 61
2003-09-23 07:30:19 51°12.09 2°47.81 15 43 13.7 101310 61
2003-09-23 07:30:23 51°12.08 2°47.78 15.7 52 13.7 101310 61
2003-09-23 07:30:29 51°12.07 2°47.75 15.8 45 13.7 101310 63
2003-09-23 07:30:33 51°12.06 2°47.73 15.8 51 13.7 101310 63
2003-09-23 07:30:39 51°12.05 2°47.7 15.2 51 13.8 101320 65
2003-09-23 07:30:43 51°12.04 2°47.68 15.9 48 13.8 101320 65
2003-09-23 07:30:49 51°12.03 2°47.65 15.8 51 13.8 101300 62
2003-09-23 07:30:53 51°12.02 2°47.62 14.8 55 13.8 101300 62
2003-09-23 07:30:59 51°12.01 2°47.59 13.5 51 13.8 101300 63
2003-09-23 07:31:03 51°12 2°47.57 14.9 56 13.8 101300 63
2003-09-23 07:31:09 51°11.99 2°47.54 14.4 53 13.7 101310 61
2003-09-23 07:31:13 51°11.98 2°47.52 14.7 55 13.7 101310 61
2003-09-23 07:31:19 51°11.97 2°47.48 13.4 51 13.7 101310 60
2003-09-23 07:31:23 51°11.96 2°47.46 14.1 45 13.7 101310 60
2003-09-23 07:31:27 51°11.95 2°47.44 12.5 45 13.7 101310 60
2003-09-23 07:31:33 51°11.94 2°47.41 14.3 45 13.7 101310 60
2003-09-23 07:31:39 51°11.93 2°47.38 13.1 40 13.7 101310 61
2003-09-23 07:31:43 51°11.92 2°47.36 14 52 13.7 101310 61
2003-09-23 07:31:49 51°11.91 2°47.32 14.4 44 13.8 101320 64
2003-09-23 07:31:53 51°11.9 2°47.3 14.4 46 13.8 101320 64
2003-09-23 07:31:57 51°11.89 2°47.28 12.5 45 13.7 101320 62
2003-09-23 07:32:03 51°11.88 2°47.25 15 49 13.7 101320 62
2003-09-23 07:32:09 51°11.86 2°47.22 14.3 49 13.7 101320 60
2003-09-23 07:32:13 51°11.85 2°47.2 14.1 54 13.7 101320 60
2003-09-23 07:32:19 51°11.84 2°47.16 13.9 39 13.7 101320 57
2003-09-23 07:32:23 51°11.83 2°47.14 15 43 13.7 101320 57
2003-09-23 07:32:29 51°11.82 2°47.11 13.3 40 13.7 101330 60
2003-09-23 07:32:33 51°11.82 2°47.09 14.4 39 13.7 101330 60
2003-09-23 07:32:39 51°11.81 2°47.05 16 42 13.6 101320 59
2003-09-23 07:32:43 51°11.8 2°47.03 15.9 46 13.6 101320 59
2003-09-23 07:32:47 51°11.8 2°47.01 14.4 42 13.6 101330 61
2003-09-23 07:32:53 51°11.79 2°46.97 16.2 42 13.6 101330 61
2003-09-23 07:32:59 51°11.78 2°46.94 14.4 46 13.7 101330 61
2003-09-23 07:33:03 51°11.77 2°46.91 16.5 51 13.7 101330 61
2003-09-23 07:33:07 51°11.77 2°46.89 16.3 49 13.6 101320 58
2003-09-23 07:33:13 51°11.76 2°46.86 15.8 47 13.6 101320 58
2003-09-23 07:33:19 51°11.75 2°46.82 17.1 49 13.7 101340 62
2003-09-23 07:33:23 51°11.75 2°46.8 15.8 43 13.7 101340 62
2003-09-23 07:33:29 51°11.74 2°46.76 15.9 55 13.7 101310 64
2003-09-23 07:33:33 51°11.73 2°46.74 14.8 48 13.7 101310 64
2003-09-23 07:33:39 51°11.72 2°46.71 14.4 54 13.7 101310 63
2003-09-23 07:33:43 51°11.72 2°46.68 14.9 50 13.7 101310 63
2003-09-23 07:33:49 51°11.71 2°46.65 13.2 39 13.7 101310 63
2003-09-23 07:33:53 51°11.7 2°46.62 14.1 48 13.7 101310 63
2003-09-23 07:33:59 51°11.7 2°46.59 14.9 38 13.7 101310 60
2003-09-23 07:34:03 51°11.69 2°46.57 14.6 50 13.7 101310 60
2003-09-23 07:34:07 51°11.69 2°46.54 15.8 44 13.7 101320 62
2003-09-23 07:34:13 51°11.68 2°46.51 16 47 13.7 101320 62
2003-09-23 07:34:19 51°11.67 2°46.47 13.8 44 13.7 101320 61
2003-09-23 07:34:23 51°11.66 2°46.45 15.9 46 13.7 101320 61
2003-09-23 07:34:27 51°11.66 2°46.43 16.3 49 13.7 101320 62
2003-09-23 07:34:33 51°11.65 2°46.39 15.8 41 13.7 101320 62
2003-09-23 07:34:39 51°11.64 2°46.36 15.1 52 13.7 101320 62
2003-09-23 07:34:43 51°11.63 2°46.33 16.3 50 13.7 101320 62
2003-09-23 07:34:49 51°11.62 2°46.3 14.6 54 13.8 101330 66
2003-09-23 07:34:51 51°11.62 2°46.29 14.2 53 13.8 101330 66
2003-09-23 07:34:59 51°11.61 2°46.24 15 48 13.7 101310 63
2003-09-23 07:35:03 51°11.6 2°46.22 16.4 53 13.7 101310 63
2003-09-23 07:35:09 51°11.6 2°46.18 15 52 13.7 101330 61
2003-09-23 07:35:13 51°11.59 2°46.16 15.1 52 13.7 101330 61
2003-09-23 07:35:19 51°11.58 2°46.13 15.8 48 13.7 101320 63
2003-09-23 07:35:23 51°11.58 2°46.1 16.4 50 13.7 101320 63
2003-09-23 07:35:29 51°11.57 2°46.07 15.3 44 13.7 101320 62
2003-09-23 07:35:33 51°11.56 2°46.05 15.9 47 13.7 101320 62
2003-09-23 07:35:39 51°11.55 2°46.01 16.5 37 13.7 101310 63
2003-09-23 07:35:43 51°11.55 2°45.99 17.2 46 13.7 101310 63
2003-09-23 07:35:49 51°11.54 2°45.95 15.5 48 13.7 101320 63
2003-09-23 07:35:53 51°11.53 2°45.93 14.9 40 13.7 101320 63
2003-09-23 07:35:59 51°11.52 2°45.89 14 39 13.8 101320 65
2003-09-23 07:36:03 51°11.52 2°45.87 13.9 45 13.8 101320 65
2003-09-23 07:36:07 51°11.51 2°45.85 14.6 40 13.7 101320 62
2003-09-23 07:36:13 51°11.5 2°45.81 14.6 41 13.7 101320 62
2003-09-23 07:36:19 51°11.49 2°45.78 15.7 37 13.7 101330 62
2003-09-23 07:36:23 51°11.49 2°45.76 15.9 41 13.7 101330 62
2003-09-23 07:36:29 51°11.48 2°45.72 15.5 40 13.7 101330 61
2003-09-23 07:36:33 51°11.48 2°45.7 14.2 38 13.7 101330 61
2003-09-23 07:36:39 51°11.47 2°45.66 15.2 39 13.7 101320 62
2003-09-23 07:36:43 51°11.46 2°45.64 15.1 37 13.7 101320 62
2003-09-23 07:36:47 51°11.46 2°45.62 15.7 44 13.7 101340 61
2003-09-23 07:36:53 51°11.45 2°45.58 14 43 13.7 101340 61
2003-09-23 07:36:59 51°11.44 2°45.55 17.7 45 13.7 101330 62
2003-09-23 07:37:03 51°11.43 2°45.52 15.9 46 13.7 101330 62
2003-09-23 07:37:07 51°11.43 2°45.5 16.2 46 13.7 101330 61
2003-09-23 07:37:13 51°11.42 2°45.47 15.9 45 13.7 101330 61
2003-09-23 07:37:19 51°11.41 2°45.43 15.5 48 13.7 101330 62
2003-09-23 07:37:23 51°11.4 2°45.41 15.3 44 13.7 101330 62
2003-09-23 07:37:27 51°11.4 2°45.38 14.4 42 13.7 101320 63
2003-09-23 07:37:31 51°11.39 2°45.36 14 40 13.7 101320 63
2003-09-23 07:37:39 51°11.38 2°45.31 14.3 42 13.7 101330 64
2003-09-23 07:37:43 51°11.38 2°45.29 14.3 46 13.7 101330 64
2003-09-23 07:37:47 51°11.37 2°45.27 14.1 38 13.7 101320 62
2003-09-23 07:37:53 51°11.36 2°45.23 14.4 40 13.7 101320 62
2003-09-23 07:37:59 51°11.35 2°45.2 13.6 37 13.6 101330 62
2003-09-23 07:38:03 51°11.35 2°45.17 15 41 13.6 101330 62
2003-09-23 07:38:09 51°11.34 2°45.14 15 44 13.6 101330 61
2003-09-23 07:38:13 51°11.33 2°45.11 16.6 36 13.6 101330 61
2003-09-23 07:38:19 51°11.33 2°45.08 15.3 43 13.6 101330 63
2003-09-23 07:38:23 51°11.32 2°45.06 15.3 43 13.6 101330 63
2003-09-23 07:38:27 51°11.31 2°45.03 14.5 44 13.6 101330 63
2003-09-23 07:38:31 51°11.31 2°45.01 15.7 43 13.6 101330 63
2003-09-23 07:38:39 51°11.3 2°44.96 15.4 44 13.7 101340 65
2003-09-23 07:38:43 51°11.29 2°44.94 15.6 51 13.7 101340 65
2003-09-23 07:38:49 51°11.28 2°44.91 16.1 45 13.6 101330 61
2003-09-23 07:38:53 51°11.28 2°44.88 15.1 49 13.6 101330 61
2003-09-23 07:38:59 51°11.27 2°44.85 17.4 39 13.6 101330 60
2003-09-23 07:39:03 51°11.26 2°44.83 17.7 43 13.6 101330 60
2003-09-23 07:39:09 51°11.26 2°44.79 14.8 48 13.6 101330 62
2003-09-23 07:39:13 51°11.25 2°44.77 16.2 48 13.6 101330 62
2003-09-23 07:39:19 51°11.24 2°44.73 14.3 38 13.6 101320 63
2003-09-23 07:39:23 51°11.23 2°44.71 16.7 47 13.6 101320 63
2003-09-23 07:39:29 51°11.23 2°44.68 16.5 36 13.6 101330 62
2003-09-23 07:39:33 51°11.22 2°44.65 16.2 45 13.6 101330 62
2003-09-23 07:39:39 51°11.21 2°44.62 14.3 34 13.6 101330 61
2003-09-23 07:39:43 51°11.21 2°44.6 15.7 45 13.6 101330 61
2003-09-23 07:39:49 51°11.2 2°44.56 15 46 13.6 101340 63
2003-09-23 07:39:53 51°11.19 2°44.54 15.8 44 13.6 101340 63
2003-09-23 07:39:59 51°11.18 2°44.5 14.2 42 13.6 101340 61
2003-09-23 07:40:03 51°11.18 2°44.48 14 44 13.6 101340 61
2003-09-23 07:40:09 51°11.17 2°44.45 14.6 44 13.6 101330 61
2003-09-23 07:40:13 51°11.16 2°44.42 13.8 43 13.6 101330 61
2003-09-23 07:40:19 51°11.15 2°44.39 16.5 42 13.6 101340 61
2003-09-23 07:40:23 51°11.15 2°44.37 16.2 40 13.6 101340 61
2003-09-23 07:40:27 51°11.14 2°44.34 15.4 33 13.6 101330 61
2003-09-23 07:40:33 51°11.14 2°44.31 15.8 35 13.6 101330 61
2003-09-23 07:40:39 51°11.13 2°44.27 16.3 34 13.6 101330 64
2003-09-23 07:40:43 51°11.12 2°44.25 15.7 44 13.6 101330 64
2003-09-23 07:40:47 51°11.12 2°44.23 15.7 40 13.7 101340 65
2003-09-23 07:40:53 51°11.11 2°44.19 16.6 37 13.7 101340 65
2003-09-23 07:40:59 51°11.1 2°44.16 15.9 35 13.7 101340 65
2003-09-23 07:41:03 51°11.09 2°44.14 16.7 38 13.7 101340 65
2003-09-23 07:41:09 51°11.09 2°44.1 16.3 38 13.7 101320 63
2003-09-23 07:41:13 51°11.08 2°44.08 16.1 41 13.7 101320 63
2003-09-23 07:41:19 51°11.07 2°44.04 14.8 37 13.7 101330 63
2003-09-23 07:41:23 51°11.07 2°44.02 16.2 36 13.7 101330 63
2003-09-23 07:41:29 51°11.06 2°43.99 16.5 36 13.7 101330 63
2003-09-23 07:41:33 51°11.05 2°43.96 14.7 40 13.7 101330 63
2003-09-23 07:41:39 51°11.04 2°43.93 15 40 13.7 101320 64
2003-09-23 07:41:43 51°11.04 2°43.91 14.1 35 13.7 101320 64
2003-09-23 07:41:49 51°11.03 2°43.87 16.2 45 13.6 101340 62
2003-09-23 07:41:53 51°11.02 2°43.85 16.2 47 13.6 101340 62
2003-09-23 07:41:59 51°11.01 2°43.82 17.5 49 13.6 101330 61
2003-09-23 07:42:03 51°11.01 2°43.79 18.1 51 13.6 101330 61
2003-09-23 07:42:09 51°11 2°43.76 16.5 52 13.6 101330 61
2003-09-23 07:42:13 51°10.99 2°43.74 15.1 40 13.6 101330 61
2003-09-23 07:42:19 51°10.99 2°43.7 15.4 33 13.6 101340 62
2003-09-23 07:42:23 51°10.98 2°43.68 14.6 38 13.6 101340 62
2003-09-23 07:42:29 51°10.97 2°43.65 16.4 40 13.6 101320 61
2003-09-23 07:42:33 51°10.97 2°43.62 15.9 40 13.6 101320 61
2003-09-23 07:42:39 51°10.96 2°43.59 16.4 38 13.6 101320 64
2003-09-23 07:42:43 51°10.96 2°43.56 15.7 41 13.6 101320 64
2003-09-23 07:42:47 51°10.95 2°43.54 15.4 35 13.7 101340 66
2003-09-23 07:42:53 51°10.95 2°43.5 15.1 35 13.7 101340 66
2003-09-23 07:42:59 51°10.94 2°43.47 17.2 41 13.7 101320 64
2003-09-23 07:43:03 51°10.94 2°43.44 16.5 32 13.7 101320 64
2003-09-23 07:43:09 51°10.93 2°43.41 17.2 36 13.7 101330 65
2003-09-23 07:43:13 51°10.93 2°43.38 15.8 39 13.7 101330 65
2003-09-23 07:43:19 51°10.93 2°43.35 16.9 40 13.8 101340 66
2003-09-23 07:43:23 51°10.92 2°43.32 15.6 43 13.8 101340 66
2003-09-23 07:43:29 51°10.92 2°43.29 16.6 41 13.8 101330 65
2003-09-23 07:43:33 51°10.91 2°43.26 16.6 44 13.8 101330 65
2003-09-23 07:43:39 51°10.91 2°43.23 15 43 13.8 101330 65
2003-09-23 07:43:43 51°10.91 2°43.2 14 40 13.8 101330 65
2003-09-23 07:43:49 51°10.9 2°43.17 14.9 41 13.7 101320 62
2003-09-23 07:43:53 51°10.9 2°43.14 14.4 39 13.7 101320 62
2003-09-23 07:43:59 51°10.89 2°43.11 16.4 37 13.6 101330 62
2003-09-23 07:44:03 51°10.89 2°43.08 15.4 40 13.6 101330 62
2003-09-23 07:44:07 51°10.89 2°43.06 15.4 45 13.6 101340 64
2003-09-23 07:44:13 51°10.88 2°43.02 16.3 52 13.6 101340 64
2003-09-23 07:44:19 51°10.88 2°42.99 17.8 42 13.7 101330 64
2003-09-23 07:44:23 51°10.88 2°42.96 16 37 13.7 101330 64
2003-09-23 07:44:29 51°10.87 2°42.93 15.6 36 13.7 101330 65
2003-09-23 07:44:33 51°10.87 2°42.91 16.8 37 13.7 101330 65
2003-09-23 07:44:39 51°10.86 2°42.87 17.2 34 13.7 101330 65
2003-09-23 07:44:43 51°10.86 2°42.85 16 37 13.7 101330 65
2003-09-23 07:44:49 51°10.86 2°42.81 16.1 36 13.7 101320 63
2003-09-23 07:44:51 51°10.85 2°42.8 16 36 13.7 101320 63
2003-09-23 07:44:59 51°10.85 2°42.75 16 36 13.6 101330 62
2003-09-23 07:45:03 51°10.84 2°42.73 15.3 35 13.6 101330 62
2003-09-23 07:45:07 51°10.84 2°42.71 15.8 36 13.6 101330 61
2003-09-23 07:45:13 51°10.84 2°42.67 14.5 35 13.6 101330 61
2003-09-23 07:45:19 51°10.83 2°42.64 14.9 33 13.6 101320 60
2003-09-23 07:45:23 51°10.83 2°42.61 16.5 41 13.6 101320 60
2003-09-23 07:45:29 51°10.82 2°42.58 14.5 38 13.5 101340 60
2003-09-23 07:45:31 51°10.82 2°42.57 16.2 35 13.5 101340 60
2003-09-23 07:45:39 51°10.82 2°42.52 16.3 50 13.5 101330 60
2003-09-23 07:45:43 51°10.81 2°42.5 16.7 40 13.5 101330 60
2003-09-23 07:45:47 51°10.81 2°42.47 15.9 39 13.5 101340 62
2003-09-23 07:45:53 51°10.81 2°42.44 16.6 43 13.5 101340 62
2003-09-23 07:45:59 51°10.8 2°42.4 17.8 41 13.6 101340 63
2003-09-23 07:46:03 51°10.8 2°42.38 17.3 39 13.6 101340 63
2003-09-23 07:46:07 51°10.79 2°42.36 15.8 41 13.6 101330 64
2003-09-23 07:46:11 51°10.79 2°42.33 16.7 42 13.6 101330 64
2003-09-23 07:46:19 51°10.79 2°42.29 15.4 40 13.6 101310 62
2003-09-23 07:46:23 51°10.78 2°42.26 15.2 41 13.6 101310 62
2003-09-23 07:46:27 51°10.78 2°42.24 15.2 38 13.5 101310 58
2003-09-23 07:46:33 51°10.77 2°42.21 15.8 44 13.5 101310 58
2003-09-23 07:46:39 51°10.77 2°42.17 15.4 44 13.5 101330 60
2003-09-23 07:46:43 51°10.77 2°42.15 14.7 43 13.5 101330 60
2003-09-23 07:46:49 51°10.76 2°42.11 14.4 42 13.5 101330 60
2003-09-23 07:46:53 51°10.76 2°42.09 14.2 35 13.5 101330 60
2003-09-23 07:46:59 51°10.75 2°42.05 15.7 39 13.5 101340 59
2003-09-23 07:47:03 51°10.75 2°42.03 15.4 32 13.5 101340 59
2003-09-23 07:47:09 51°10.75 2°42 15.5 35 13.6 101340 64
2003-09-23 07:47:11 51°10.75 2°41.98 14.9 36 13.6 101340 64
2003-09-23 07:47:19 51°10.74 2°41.94 16.6 38 13.7 101340 65
2003-09-23 07:47:23 51°10.74 2°41.91 15.5 38 13.7 101340 65
2003-09-23 07:47:29 51°10.73 2°41.88 16.6 42 13.6 101330 63
2003-09-23 07:47:33 51°10.73 2°41.86 15.1 38 13.6 101330 63
2003-09-23 07:47:39 51°10.72 2°41.82 15.9 39 13.6 101320 63
2003-09-23 07:47:43 51°10.72 2°41.8 14.6 36 13.6 101320 63
2003-09-23 07:47:49 51°10.71 2°41.76 15.8 37 13.6 101330 61
2003-09-23 07:47:53 51°10.71 2°41.74 15.4 37 13.6 101330 61
2003-09-23 07:47:59 51°10.71 2°41.7 14.8 39 13.6 101330 59
2003-09-23 07:48:03 51°10.7 2°41.68 14.4 37 13.6 101330 59
2003-09-23 07:48:07 51°10.7 2°41.66 14.1 36 13.6 101330 60
2003-09-23 07:48:13 51°10.7 2°41.62 14.9 39 13.6 101330 60
2003-09-23 07:48:19 51°10.69 2°41.59 15 38 13.6 101330 60
2003-09-23 07:48:23 51°10.69 2°41.56 15.2 35 13.6 101330 60
2003-09-23 07:48:29 51°10.68 2°41.53 14.3 34 13.5 101340 59
2003-09-23 07:48:33 51°10.68 2°41.51 15.4 32 13.5 101340 59
2003-09-23 07:48:39 51°10.68 2°41.47 14.4 38 13.5 101350 60
2003-09-23 07:48:43 51°10.67 2°41.45 13.7 39 13.5 101350 60
2003-09-23 07:48:47 51°10.67 2°41.42 15 35 13.5 101330 61
2003-09-23 07:48:53 51°10.66 2°41.39 16.3 38 13.5 101330 61
2003-09-23 07:48:59 51°10.66 2°41.36 15.2 40 13.5 101350 61
2003-09-23 07:49:03 51°10.66 2°41.33 15.2 40 13.5 101350 61
2003-09-23 07:49:09 51°10.65 2°41.3 15.7 29 13.5 101340 59
2003-09-23 07:49:13 51°10.65 2°41.27 13.6 36 13.5 101340 59
2003-09-23 07:49:19 51°10.64 2°41.24 16.4 37 13.5 101340 62
2003-09-23 07:49:23 51°10.64 2°41.21 15.4 40 13.5 101340 62
2003-09-23 07:49:29 51°10.64 2°41.18 16 43 13.5 101340 63
2003-09-23 07:49:31 51°10.63 2°41.17 15 39 13.5 101340 63
2003-09-23 07:49:39 51°10.63 2°41.12 15.4 45 13.5 101330 60
2003-09-23 07:49:43 51°10.62 2°41.1 15.3 43 13.5 101330 60
2003-09-23 07:49:47 51°10.62 2°41.08 15.4 41 13.5 101340 62
2003-09-23 07:49:53 51°10.62 2°41.04 14.1 41 13.5 101340 62
2003-09-23 07:49:59 51°10.61 2°41.01 15.4 52 13.5 101330 62
2003-09-23 07:50:03 51°10.61 2°40.98 15.7 45 13.5 101330 62
2003-09-23 07:50:09 51°10.6 2°40.95 15.8 48 13.5 101330 61
2003-09-23 07:50:13 51°10.6 2°40.92 15.2 38 13.5 101330 61
2003-09-23 07:50:19 51°10.6 2°40.89 14.6 38 13.5 101340 64
2003-09-23 07:50:23 51°10.59 2°40.86 16.7 37 13.5 101340 64
2003-09-23 07:50:27 51°10.59 2°40.84 16.4 38 13.5 101330 64
2003-09-23 07:50:33 51°10.58 2°40.81 15.8 37 13.5 101330 64
2003-09-23 07:50:39 51°10.58 2°40.77 14.7 31 13.6 101340 67
2003-09-23 07:50:43 51°10.58 2°40.75 15.7 34 13.6 101340 67
2003-09-23 07:50:49 51°10.57 2°40.71 15.3 38 13.6 101340 63
2003-09-23 07:50:53 51°10.57 2°40.69 15.4 36 13.6 101340 63
2003-09-23 07:50:59 51°10.56 2°40.66 13.5 37 13.6 101340 63
2003-09-23 07:51:03 51°10.56 2°40.63 15.5 33 13.6 101340 63
2003-09-23 07:51:09 51°10.56 2°40.6 14.3 39 13.6 101340 64
2003-09-23 07:51:13 51°10.55 2°40.58 16 40 13.6 101340 64
2003-09-23 07:51:19 51°10.55 2°40.54 17.2 42 13.5 101340 61
2003-09-23 07:51:23 51°10.54 2°40.52 15.8 45 13.5 101340 61
2003-09-23 07:51:29 51°10.54 2°40.48 16.5 45 13.5 101350 62
2003-09-23 07:51:33 51°10.54 2°40.46 16.3 47 13.5 101350 62
2003-09-23 07:51:39 51°10.53 2°40.43 14.6 39 13.6 101350 63
2003-09-23 07:51:43 51°10.53 2°40.4 15.5 40 13.6 101350 63
2003-09-23 07:51:49 51°10.52 2°40.37 16.7 39 13.6 101330 61
2003-09-23 07:51:53 51°10.52 2°40.34 15.9 41 13.6 101330 61
2003-09-23 07:51:59 51°10.51 2°40.31 15.1 43 13.5 101330 62
2003-09-23 07:52:03 51°10.51 2°40.29 14.2 38 13.5 101330 62
2003-09-23 07:52:07 51°10.51 2°40.26 15.6 43 13.6 101350 63
2003-09-23 07:52:11 51°10.51 2°40.24 14.5 46 13.6 101350 63
2003-09-23 07:52:19 51°10.5 2°40.19 14.6 36 13.5 101340 59
2003-09-23 07:52:23 51°10.5 2°40.17 13.9 36 13.5 101340 59
2003-09-23 07:52:27 51°10.49 2°40.15 14.6 43 13.5 101350 58
2003-09-23 07:52:33 51°10.49 2°40.11 14.4 37 13.5 101350 58
2003-09-23 07:52:39 51°10.49 2°40.08 13.1 40 13.5 101340 61
2003-09-23 07:52:43 51°10.48 2°40.05 15.9 42 13.5 101340 61
2003-09-23 07:52:47 51°10.48 2°40.03 14.9 38 13.5 101350 61
2003-09-23 07:52:53 51°10.47 2°39.99 14.6 40 13.5 101350 61
2003-09-23 07:52:59 51°10.47 2°39.96 15.1 39 13.4 101340 60
2003-09-23 07:53:03 51°10.47 2°39.94 14.2 42 13.4 101340 60
2003-09-23 07:53:09 51°10.46 2°39.9 13.8 40 13.5 101360 63
2003-09-23 07:53:13 51°10.46 2°39.88 14.7 36 13.5 101360 63
2003-09-23 07:53:19 51°10.45 2°39.84 15.8 37 13.5 101350 63
2003-09-23 07:53:23 51°10.45 2°39.82 15.6 43 13.5 101350 63
2003-09-23 07:53:29 51°10.44 2°39.79 16.6 41 13.4 101350 61
2003-09-23 07:53:33 51°10.44 2°39.76 17.2 44 13.4 101350 61
2003-09-23 07:53:39 51°10.44 2°39.73 15.6 49 13.5 101360 61
2003-09-23 07:53:43 51°10.43 2°39.7 14.2 46 13.5 101360 61
2003-09-23 07:53:49 51°10.43 2°39.67 14.2 42 13.5 101350 61
2003-09-23 07:53:53 51°10.42 2°39.65 13.7 48 13.5 101350 61
2003-09-23 07:53:59 51°10.42 2°39.61 13.6 40 13.5 101340 62
2003-09-23 07:54:03 51°10.42 2°39.59 14.3 26 13.5 101340 62
2003-09-23 07:54:07 51°10.41 2°39.57 16.8 39 13.5 101330 61
2003-09-23 07:54:13 51°10.41 2°39.53 15.2 35 13.5 101330 61
2003-09-23 07:54:19 51°10.4 2°39.5 16 41 13.5 101330 63
2003-09-23 07:54:23 51°10.4 2°39.47 14.7 41 13.5 101330 63
2003-09-23 07:54:29 51°10.39 2°39.44 15.5 37 13.6 101350 64
2003-09-23 07:54:33 51°10.39 2°39.42 14.3 30 13.6 101350 64
2003-09-23 07:54:39 51°10.39 2°39.38 14.8 37 13.6 101320 62
2003-09-23 07:54:43 51°10.38 2°39.36 15.6 34 13.6 101320 62
2003-09-23 07:54:49 51°10.38 2°39.32 14.5 36 13.6 101340 65
2003-09-23 07:54:51 51°10.38 2°39.31 15 35 13.6 101340 65
2003-09-23 07:54:59 51°10.37 2°39.26 14.6 33 13.6 101350 63
2003-09-23 07:55:03 51°10.37 2°39.24 16 31 13.6 101350 63
2003-09-23 07:55:09 51°10.36 2°39.21 14 36 13.5 101350 59
2003-09-23 07:55:13 51°10.36 2°39.18 16.9 33 13.5 101350 59
2003-09-23 07:55:19 51°10.36 2°39.15 15.8 33 13.5 101350 60
2003-09-23 07:55:23 51°10.35 2°39.12 15.8 33 13.5 101350 60
2003-09-23 07:55:29 51°10.35 2°39.09 15.2 33 13.6 101360 61
2003-09-23 07:55:33 51°10.34 2°39.07 16.5 40 13.6 101360 61
2003-09-23 07:55:39 51°10.34 2°39.03 16.3 37 13.6 101350 60
2003-09-23 07:55:43 51°10.34 2°39.01 16.4 36 13.6 101350 60
2003-09-23 07:55:49 51°10.33 2°38.97 14.1 34 13.6 101350 60
2003-09-23 07:55:53 51°10.33 2°38.95 14.4 39 13.6 101350 60
2003-09-23 07:55:59 51°10.32 2°38.91 15.5 37 13.6 101340 59
2003-09-23 07:56:03 51°10.32 2°38.89 16.3 37 13.6 101340 59
2003-09-23 07:56:07 51°10.32 2°38.87 15.4 36 13.5 101350 58
2003-09-23 07:56:13 51°10.31 2°38.83 16.5 38 13.5 101350 58
2003-09-23 07:56:19 51°10.3 2°38.8 14.9 43 13.6 101350 62
2003-09-23 07:56:23 51°10.3 2°38.77 14.8 39 13.6 101350 62
2003-09-23 07:56:29 51°10.3 2°38.74 15.5 37 13.5 101350 59
2003-09-23 07:56:33 51°10.29 2°38.72 14.2 47 13.5 101350 59
2003-09-23 07:56:39 51°10.29 2°38.68 14.3 37 13.5 101350 58
2003-09-23 07:56:43 51°10.28 2°38.66 13.8 45 13.5 101350 58
2003-09-23 07:56:49 51°10.28 2°38.62 15.7 46 13.5 101350 58
2003-09-23 07:56:53 51°10.28 2°38.6 14.4 41 13.5 101350 58
2003-09-23 07:56:59 51°10.27 2°38.56 15 40 13.5 101340 57
2003-09-23 07:57:03 51°10.27 2°38.54 14.9 38 13.5 101340 57
2003-09-23 07:57:09 51°10.27 2°38.51 14.7 35 13.5 101360 61
2003-09-23 07:57:13 51°10.26 2°38.48 14.5 34 13.5 101360 61
2003-09-23 07:57:19 51°10.26 2°38.45 14 40 13.5 101340 60
2003-09-23 07:57:23 51°10.25 2°38.42 14.3 45 13.5 101340 60
2003-09-23 07:57:27 51°10.25 2°38.4 14.2 41 13.5 101360 60
2003-09-23 07:57:31 51°10.25 2°38.38 14 39 13.5 101360 60
2003-09-23 07:57:39 51°10.24 2°38.33 14.9 42 13.5 101360 61
2003-09-23 07:57:43 51°10.24 2°38.31 13.9 41 13.5 101360 61
2003-09-23 07:57:49 51°10.23 2°38.27 13.1 32 13.5 101350 61
2003-09-23 07:57:53 51°10.23 2°38.25 15.9 38 13.5 101350 61
2003-09-23 07:57:59 51°10.23 2°38.21 17 33 13.5 101350 64
2003-09-23 07:58:03 51°10.22 2°38.19 17.3 36 13.5 101350 64
2003-09-23 07:58:09 51°10.22 2°38.15 17 40 13.5 101350 64
2003-09-23 07:58:13 51°10.21 2°38.13 15.3 38 13.5 101350 64
2003-09-23 07:58:19 51°10.21 2°38.1 16.1 37 13.6 101360 67
2003-09-23 07:58:23 51°10.21 2°38.07 14.6 35 13.6 101360 67
2003-09-23 07:58:27 51°10.2 2°38.05 16.5 32 13.6 101350 63
2003-09-23 07:58:31 51°10.2 2°38.03 17.1 31 13.6 101350 63
2003-09-23 07:58:39 51°10.19 2°37.98 15.8 40 13.5 101350 61
2003-09-23 07:58:43 51°10.19 2°37.96 15.6 38 13.5 101350 61
2003-09-23 07:58:49 51°10.19 2°37.92 15.7 35 13.5 101360 62
2003-09-23 07:58:53 51°10.18 2°37.9 15.8 39 13.5 101360 62
2003-09-23 07:58:59 51°10.18 2°37.86 15.3 33 13.5 101350 61
2003-09-23 07:59:03 51°10.18 2°37.84 17.4 39 13.5 101350 61
2003-09-23 07:59:09 51°10.17 2°37.8 15.9 33 13.5 101360 62
2003-09-23 07:59:13 51°10.17 2°37.78 14.2 37 13.5 101360 62
2003-09-23 07:59:19 51°10.16 2°37.75 15.2 37 13.5 101350 61
2003-09-23 07:59:23 51°10.16 2°37.72 16.1 39 13.5 101350 61
2003-09-23 07:59:27 51°10.16 2°37.7 16 41 13.5 101360 63
2003-09-23 07:59:31 51°10.15 2°37.68 16 36 13.5 101360 63
2003-09-23 07:59:39 51°10.15 2°37.63 14.5 38 13.6 101360 66
2003-09-23 07:59:43 51°10.14 2°37.61 14.8 43 13.6 101370 62
2003-09-23 07:59:47 51°10.14 2°37.58 15.4 40 13.6 101370 62
2003-09-23 07:59:53 51°10.14 2°37.55 13.3 38 13.7 101360 66
2003-09-23 07:59:59 51°10.13 2°37.51 14.5 45 13.7 101360 66
2003-09-23 08:00:03 51°10.13 2°37.49 13.9 41 13.7 101360 65
2003-09-23 08:00:09 51°10.12 2°37.45 14.6 42 13.7 101360 65
2003-09-23 08:00:13 51°10.12 2°37.43 14.9 34 13.7 101360 64
2003-09-23 08:00:19 51°10.12 2°37.4 15.3 38 13.7 101360 64
2003-09-23 08:00:23 51°10.11 2°37.37 14.4 36 13.6 101360 63
2003-09-23 08:00:29 51°10.11 2°37.34 13.7 40 13.6 101360 63
2003-09-23 08:00:33 51°10.11 2°37.31 13.1 39 13.6 101360 62
2003-09-23 08:00:39 51°10.1 2°37.28 14 47 13.6 101360 62
2003-09-23 08:00:43 51°10.1 2°37.26 14.5 53 13.5 101370 62
2003-09-23 08:00:49 51°10.09 2°37.22 14.8 38 13.5 101370 62
2003-09-23 08:00:53 51°10.09 2°37.2 12.9 32 13.5 101370 64
2003-09-23 08:00:59 51°10.08 2°37.16 14.8 43 13.5 101370 64
2003-09-23 08:01:03 51°10.08 2°37.14 15 37 13.6 101370 64
2003-09-23 08:01:07 51°10.08 2°37.12 16.4 36 13.6 101370 64
2003-09-23 08:01:13 51°10.07 2°37.08 16.4 40 13.6 101370 64
2003-09-23 08:01:19 51°10.07 2°37.05 17.2 41 13.6 101370 64
2003-09-23 08:01:23 51°10.07 2°37.03 16.6 43 13.5 101370 64
2003-09-23 08:01:27 51°10.06 2°37 15.7 39 13.5 101370 64
2003-09-23 08:01:33 51°10.06 2°36.97 15.6 41 13.5 101360 62
2003-09-23 08:01:39 51°10.05 2°36.94 14.9 37 13.5 101360 62
2003-09-23 08:01:43 51°10.05 2°36.91 15.6 41 13.5 101350 62
2003-09-23 08:01:47 51°10.05 2°36.89 13.7 40 13.5 101350 62
2003-09-23 08:01:53 51°10.04 2°36.86 14 43 13.5 101370 60
2003-09-23 08:01:59 51°10.04 2°36.82 15.2 44 13.5 101370 60
2003-09-23 08:02:03 51°10.04 2°36.8 14.7 49 13.5 101380 61
2003-09-23 08:02:07 51°10.03 2°36.78 15.9 44 13.5 101380 61
2003-09-23 08:02:13 51°10.03 2°36.74 15.1 42 13.5 101380 63
2003-09-23 08:02:19 51°10.02 2°36.71 15.4 35 13.5 101380 63
2003-09-23 08:02:23 51°10.02 2°36.69 15.8 36 13.5 101360 61
2003-09-23 08:02:27 51°10.02 2°36.66 18 36 13.5 101360 61
2003-09-23 08:02:33 51°10.02 2°36.63 16.4 36 13.5 101360 63
2003-09-23 08:02:39 51°10.01 2°36.59 15.8 34 13.5 101360 63
2003-09-23 08:02:43 51°10.01 2°36.57 15.7 31 13.6 101370 65
2003-09-23 08:02:47 51°10.01 2°36.55 16.7 30 13.6 101370 65
2003-09-23 08:02:53 51°10.01 2°36.51 14.8 31 13.5 101360 58
2003-09-23 08:02:59 51°10.01 2°36.48 16.3 33 13.5 101360 58
2003-09-23 08:03:03 51°10.01 2°36.45 15.5 34 13.5 101370 60
2003-09-23 08:03:09 51°10.01 2°36.42 16.2 35 13.5 101370 60
2003-09-23 08:03:13 51°10.01 2°36.4 15.6 41 13.5 101370 59
2003-09-23 08:03:19 51°10.01 2°36.36 15.1 35 13.5 101370 59
2003-09-23 08:03:23 51°10.01 2°36.34 16.1 38 13.5 101380 63
2003-09-23 08:03:29 51°10.01 2°36.3 15.2 27 13.5 101380 63
2003-09-23 08:03:33 51°10.02 2°36.28 16.7 28 13.5 101370 61
2003-09-23 08:03:39 51°10.02 2°36.25 15.9 24 13.5 101370 61
2003-09-23 08:03:43 51°10.03 2°36.23 16.5 25 13.5 101370 60
2003-09-23 08:03:49 51°10.03 2°36.19 17 16 13.5 101370 60
2003-09-23 08:03:53 51°10.04 2°36.17 15.9 17 13.6 101380 61
2003-09-23 08:03:59 51°10.05 2°36.14 15.2 15 13.6 101380 61
2003-09-23 08:04:03 51°10.05 2°36.12 17.7 14 13.6 101380 63
2003-09-23 08:04:09 51°10.06 2°36.09 15.6 12 13.6 101380 63
2003-09-23 08:04:13 51°10.07 2°36.07 15.1 12 13.6 101340 63
2003-09-23 08:04:19 51°10.08 2°36.04 16.5 11 13.6 101340 63
2003-09-23 08:04:23 51°10.09 2°36.02 17 14 13.6 101360 63
2003-09-23 08:04:27 51°10.09 2°36 18.2 12 13.6 101360 63
2003-09-23 08:04:33 51°10.11 2°35.97 17.6 8 13.6 101390 60
2003-09-23 08:04:39 51°10.12 2°35.94 17.8 4 13.6 101390 60
2003-09-23 08:04:43 51°10.13 2°35.93 17.6 3 13.6 101370 61
2003-09-23 08:04:49 51°10.14 2°35.9 17 3 13.6 101370 61
2003-09-23 08:04:53 51°10.15 2°35.89 16.5 6 13.6 101370 59
2003-09-23 08:04:59 51°10.17 2°35.86 16.1 4 13.6 101370 59
2003-09-23 08:05:03 51°10.18 2°35.85 15.6 4 13.5 101390 60
2003-09-23 08:05:09 51°10.2 2°35.83 16.4 4 13.5 101390 60
2003-09-23 08:05:13 51°10.21 2°35.81 16.4 4 13.5 101390 58
2003-09-23 08:05:19 51°10.22 2°35.8 15.9 359 13.5 101390 58
2003-09-23 08:05:23 51°10.24 2°35.78 16 359 13.5 101380 59
2003-09-23 08:05:29 51°10.25 2°35.76 17.2 354 13.5 101380 59
2003-09-23 08:05:33 51°10.27 2°35.75 16.8 360 13.5 101380 60
2003-09-23 08:05:39 51°10.28 2°35.74 16 351 13.5 101380 60
2003-09-23 08:05:43 51°10.3 2°35.72 15.6 353 13.5 101370 60
2003-09-23 08:05:49 51°10.32 2°35.71 15.3 351 13.5 101370 60
2003-09-23 08:05:53 51°10.33 2°35.7 14.6 345 13.6 101390 61
2003-09-23 08:05:59 51°10.35 2°35.69 16.2 342 13.6 101390 61
2003-09-23 08:06:03 51°10.36 2°35.69 13.9 336 13.5 101370 59
2003-09-23 08:06:07 51°10.38 2°35.68 13.5 343 13.5 101370 59
2003-09-23 08:06:11 51°10.39 2°35.68 14.2 337 13.5 101380 59
2003-09-23 08:06:19 51°10.42 2°35.68 14.2 342 13.5 101380 59
2003-09-23 08:06:23 51°10.43 2°35.67 16 343 13.5 101370 60
2003-09-23 08:06:29 51°10.45 2°35.67 16.1 341 13.5 101370 60
2003-09-23 08:06:33 51°10.47 2°35.67 15.5 336 13.6 101390 62
2003-09-23 08:06:39 51°10.49 2°35.67 15 338 13.6 101390 62
2003-09-23 08:06:43 51°10.5 2°35.67 16.6 338 13.6 101370 64
2003-09-23 08:06:47 51°10.52 2°35.67 15.4 333 13.6 101370 64
2003-09-23 08:06:53 51°10.54 2°35.68 15.4 334 13.7 101360 64
2003-09-23 08:06:59 51°10.56 2°35.68 16 336 13.7 101360 64
2003-09-23 08:07:03 51°10.57 2°35.69 16.4 330 13.6 101370 62
2003-09-23 08:07:09 51°10.59 2°35.69 16.4 333 13.6 101370 62
2003-09-23 08:07:13 51°10.61 2°35.7 15.3 334 13.6 101360 60
2003-09-23 08:07:19 51°10.63 2°35.7 14.4 336 13.6 101360 60
2003-09-23 08:07:23 51°10.64 2°35.71 13.9 331 13.6 101380 60
2003-09-23 08:07:29 51°10.66 2°35.72 14.5 332 13.6 101380 60
2003-09-23 08:07:33 51°10.68 2°35.72 15.6 334 13.6 101380 60
2003-09-23 08:07:39 51°10.7 2°35.73 15.5 331 13.6 101380 60
2003-09-23 08:07:43 51°10.71 2°35.73 14.6 333 13.5 101370 60
2003-09-23 08:07:49 51°10.73 2°35.74 17 329 13.5 101370 60
2003-09-23 08:07:53 51°10.75 2°35.74 16.7 335 13.5 101370 60
2003-09-23 08:07:59 51°10.77 2°35.75 14.8 333 13.5 101370 60
2003-09-23 08:08:03 51°10.78 2°35.75 14.8 329 13.5 101370 60
2003-09-23 08:08:09 51°10.8 2°35.76 14.6 328 13.5 101370 60
2003-09-23 08:08:13 51°10.81 2°35.77 14.6 329 13.5 101370 59
2003-09-23 08:08:19 51°10.83 2°35.77 12.7 321 13.5 101370 59
2003-09-23 08:08:23 51°10.85 2°35.78 13.3 330 13.5 101390 61
2003-09-23 08:08:27 51°10.86 2°35.78 13.2 328 13.5 101390 61
2003-09-23 08:08:33 51°10.88 2°35.79 15.1 329 13.5 101370 59
2003-09-23 08:08:39 51°10.9 2°35.8 14.5 324 13.5 101370 59
2003-09-23 08:08:43 51°10.92 2°35.8 12.9 328 13.5 101380 59
2003-09-23 08:08:47 51°10.93 2°35.8 14.7 332 13.5 101380 59
2003-09-23 08:08:53 51°10.95 2°35.81 13.8 328 13.5 101400 60
2003-09-23 08:08:59 51°10.97 2°35.82 13.5 330 13.5 101400 60
2003-09-23 08:09:03 51°10.98 2°35.83 13.5 328 13.5 101400 63
2003-09-23 08:09:07 51°11 2°35.84 13.4 323 13.5 101400 63
2003-09-23 08:09:13 51°11.01 2°35.86 14.2 321 13.5 101380 61
2003-09-23 08:09:19 51°11.03 2°35.87 13.6 319 13.5 101380 61
2003-09-23 08:09:23 51°11.04 2°35.89 13.6 318 13.5 101370 62
2003-09-23 08:09:27 51°11.06 2°35.9 14.4 308 13.5 101370 62
2003-09-23 08:09:33 51°11.07 2°35.93 12.4 313 13.6 101370 62
2003-09-23 08:09:39 51°11.09 2°35.95 14 308 13.6 101370 62
2003-09-23 08:09:43 51°11.09 2°35.97 12.7 305 13.6 101390 63
2003-09-23 08:09:47 51°11.1 2°35.99 11.3 306 13.6 101390 63
2003-09-23 08:09:53 51°11.12 2°36.02 12.5 302 13.6 101370 63
2003-09-23 08:09:59 51°11.13 2°36.05 12.3 306 13.6 101370 63
2003-09-23 08:10:03 51°11.13 2°36.07 11.6 305 13.6 101380 63
2003-09-23 08:10:09 51°11.15 2°36.1 12.3 302 13.6 101380 63
2003-09-23 08:10:13 51°11.15 2°36.12 10.8 295 13.6 101390 64
2003-09-23 08:10:19 51°11.16 2°36.15 8.8 299 13.6 101390 64
2003-09-23 08:10:23 51°11.17 2°36.17 10.4 288 13.6 101400 63
2003-09-23 08:10:29 51°11.18 2°36.2 8.1 296 13.6 101400 63
2003-09-23 08:10:33 51°11.18 2°36.22 9.2 297 13.4 101400 61
2003-09-23 08:10:39 51°11.19 2°36.26 11.4 292 13.4 101400 61
2003-09-23 08:10:43 51°11.2 2°36.28 11.4 292 13.5 101420 61
2003-09-23 08:10:47 51°11.21 2°36.3 10.9 300 13.5 101420 61
2003-09-23 08:10:53 51°11.22 2°36.33 10.7 294 13.6 101410 64
2003-09-23 08:10:59 51°11.23 2°36.36 10.6 297 13.6 101410 64
2003-09-23 08:11:03 51°11.24 2°36.38 10.1 292 13.6 101410 64
2003-09-23 08:11:07 51°11.25 2°36.4 9.6 300 13.6 101410 64
2003-09-23 08:11:13 51°11.26 2°36.42 9.8 303 13.6 101400 63
2003-09-23 08:11:19 51°11.28 2°36.45 11.9 299 13.6 101400 63
2003-09-23 08:11:23 51°11.28 2°36.47 10.9 292 13.6 101400 63
2003-09-23 08:11:27 51°11.29 2°36.49 10.4 305 13.6 101400 63
2003-09-23 08:11:33 51°11.3 2°36.52 12.3 307 13.6 101410 63
2003-09-23 08:11:39 51°11.32 2°36.55 13 291 13.6 101410 63
2003-09-23 08:11:43 51°11.32 2°36.57 12.5 291 13.6 101400 63
2003-09-23 08:11:47 51°11.33 2°36.59 11.2 302 13.6 101400 63
2003-09-23 08:11:53 51°11.35 2°36.62 9.2 299 13.6 101410 64
2003-09-23 08:11:59 51°11.36 2°36.65 12.4 305 13.6 101410 64
2003-09-23 08:12:03 51°11.37 2°36.67 12 301 13.6 101410 62
2003-09-23 08:12:09 51°11.38 2°36.7 9.4 304 13.6 101410 62
2003-09-23 08:12:13 51°11.39 2°36.72 12 306 13.6 101410 64
2003-09-23 08:12:19 51°11.4 2°36.75 12.7 308 13.6 101410 64
2003-09-23 08:12:23 51°11.41 2°36.77 11.2 308 13.7 101410 65
2003-09-23 08:12:27 51°11.42 2°36.79 10.6 306 13.7 101410 65
2003-09-23 08:12:31 51°11.42 2°36.81 12.5 305 13.7 101420 65
2003-09-23 08:12:39 51°11.44 2°36.85 11 305 13.7 101420 65
2003-09-23 08:12:43 51°11.45 2°36.87 12.7 310 13.7 101410 64
2003-09-23 08:12:47 51°11.46 2°36.89 12.1 309 13.7 101410 64
2003-09-23 08:12:53 51°11.47 2°36.91 13.6 309 13.7 101410 63
2003-09-23 08:12:59 51°11.48 2°36.94 12.8 302 13.7 101410 63
2003-09-23 08:13:03 51°11.49 2°36.96 12.9 296 13.7 101400 64
2003-09-23 08:13:09 51°11.5 2°36.99 13   13.7 101400 64
2003-09-23 08:13:13 51°11.51 2°37.01 13.5 300 13.7 101400 63
2003-09-23 08:13:19 51°11.52 2°37.04 12.2 309 13.7 101400 63
2003-09-23 08:13:23 51°11.53 2°37.06 14.1 303 13.7 101400 63
2003-09-23 08:13:29 51°11.54 2°37.09 12.5 308 13.7 101400 63
2003-09-23 08:13:33 51°11.55 2°37.11 12.1 303 13.7 101400 63
2003-09-23 08:13:39 51°11.56 2°37.14 12 307 13.7 101400 63
2003-09-23 08:13:43 51°11.57 2°37.16 12.3 308 13.6 101390 62
2003-09-23 08:13:47 51°11.58 2°37.18 13.5 230 13.6 101390 62
2003-09-23 08:13:53 51°11.59 2°37.21 13.7 312 13.6 101400 62
2003-09-23 08:13:59 51°11.6 2°37.24 10.6 226 13.6 101400 62
2003-09-23 08:14:03 51°11.61 2°37.26 13.2 306 13.6 101400 62
2003-09-23 08:14:09 51°11.62 2°37.28 12.4 309 13.6 101400 62
2003-09-23 08:14:13 51°11.63 2°37.3 14 309 13.6 101400 62
2003-09-23 08:14:19 51°11.64 2°37.33 12 309 13.6 101400 62
2003-09-23 08:14:23 51°11.65 2°37.35 8.8 309 13.6 101410 62
2003-09-23 08:14:27 51°11.66 2°37.37 11.9 307 13.6 101410 62
2003-09-23 08:14:31 51°11.66 2°37.39 11.1 307 13.6 101410 61
2003-09-23 08:14:39 51°11.68 2°37.43 11.4 309 13.6 101410 61
2003-09-23 08:14:43 51°11.69 2°37.45 11.2 313 13.6 101410 62
2003-09-23 08:14:47 51°11.7 2°37.47 12.1 308 13.6 101410 62
2003-09-23 08:14:53 51°11.71 2°37.5 12.7 310 13.6 101410 62
2003-09-23 08:14:59 51°11.72 2°37.53 12.2 296 13.6 101410 62
2003-09-23 08:15:03 51°11.73 2°37.55 10.3 307 13.6 101410 62
2003-09-23 08:15:09 51°11.74 2°37.58 12.4 299 13.6 101410 62
2003-09-23 08:15:13 51°11.75 2°37.6 11.6 292 13.6 101410 61
2003-09-23 08:15:19 51°11.76 2°37.63 12 301 13.6 101410 61
2003-09-23 08:15:23 51°11.77 2°37.65 11.6 296 13.6 101400 63
2003-09-23 08:15:27 51°11.78 2°37.67 10 291 13.6 101400 63
2003-09-23 08:15:33 51°11.79 2°37.7 9.6 297 13.6 101410 63
2003-09-23 08:15:39 51°11.8 2°37.73 9.3 292 13.6 101410 63
2003-09-23 08:15:43 51°11.81 2°37.75 10.3 298 13.6 101410 63
2003-09-23 08:15:49 51°11.82 2°37.78 10.4 298 13.6 101410 63
2003-09-23 08:15:53 51°11.83 2°37.8 9.8 293 13.5 101410 63
2003-09-23 08:15:59 51°11.84 2°37.83 9.4 291 13.5 101410 63
2003-09-23 08:16:03 51°11.85 2°37.84 7.8 290 13.6 101430 64
2003-09-23 08:16:07 51°11.86 2°37.86 10.1 289 13.6 101430 64
2003-09-23 08:16:11 51°11.87 2°37.88 11.6 286 13.6 101430 63
2003-09-23 08:16:19 51°11.89 2°37.92 11 288 13.6 101430 63
2003-09-23 08:16:23 51°11.9 2°37.94 9.9 290 13.6 101430 64
2003-09-23 08:16:29 51°11.91 2°37.97 8.8 286 13.6 101430 64
2003-09-23 08:16:33 51°11.92 2°37.99 7.9 302 13.6 101420 65
2003-09-23 08:16:39 51°11.93 2°38.02 10 289 13.6 101420 65
2003-09-23 08:16:43 51°11.94 2°38.04 8.9 303 13.6 101430 65
2003-09-23 08:16:49 51°11.95 2°38.07 11.9 306 13.6 101430 65
2003-09-23 08:16:53 51°11.96 2°38.09 10.1 297 13.7 101420 66
2003-09-23 08:16:59 51°11.97 2°38.12 12.2 294 13.7 101420 66
2003-09-23 08:17:03 51°11.98 2°38.14 11.2 305 13.7 101420 67
2003-09-23 08:17:09 51°11.99 2°38.17 10.8 303 13.7 101420 67
2003-09-23 08:17:13 51°12 2°38.19 10.6 305 13.7 101420 66
2003-09-23 08:17:19 51°12.01 2°38.22 11.6 302 13.7 101420 66
2003-09-23 08:17:23 51°12.02 2°38.24 11 303 13.6 101410 66
2003-09-23 08:17:29 51°12.03 2°38.27 10.7 300 13.6 101410 66
2003-09-23 08:17:33 51°12.04 2°38.29 9 307 13.7 101420 64
2003-09-23 08:17:39 51°12.05 2°38.32 11.5 306 13.7 101420 64
2003-09-23 08:17:43 51°12.06 2°38.34 12.2 303 13.7 101410 64
2003-09-23 08:17:49 51°12.07 2°38.37 11.1 296 13.7 101410 64
2003-09-23 08:17:53 51°12.08 2°38.39 10.5 301 13.6 101410 63
2003-09-23 08:17:59 51°12.09 2°38.42 10.9 302 13.6 101410 63
2003-09-23 08:18:03 51°12.1 2°38.44 10.2 306 13.7 101420 64
2003-09-23 08:18:07 51°12.11 2°38.46 10.2 303 13.7 101420 64
2003-09-23 08:18:11 51°12.11 2°38.48 8.9 309 13.6 101410 62
2003-09-23 08:18:19 51°12.13 2°38.52 11.5 296 13.6 101410 62
2003-09-23 08:18:23 51°12.14 2°38.54 12.5 300 13.5 101410 62
2003-09-23 08:18:29 51°12.15 2°38.57 11.6 290 13.5 101410 62
2003-09-23 08:18:33 51°12.16 2°38.59 11.8 293 13.6 101420 61
2003-09-23 08:18:39 51°12.17 2°38.62 12.2 302 13.6 101420 61
2003-09-23 08:18:43 51°12.18 2°38.64 12.6 303 13.6 101420 62
2003-09-23 08:18:49 51°12.19 2°38.67 11.8 294 13.6 101420 62
2003-09-23 08:18:53 51°12.2 2°38.69 9.4 299 13.7 101410 63
2003-09-23 08:18:59 51°12.21 2°38.72 10.5 294 13.7 101410 63
2003-09-23 08:19:03 51°12.22 2°38.74 10.4 298 13.7 101410 64
2003-09-23 08:19:09 51°12.23 2°38.77 11.1 304 13.7 101410 64
2003-09-23 08:19:13 51°12.24 2°38.79 10.8 304 13.7 101420 63
2003-09-23 08:19:19 51°12.25 2°38.82 11.1 306 13.7 101420 63
2003-09-23 08:19:23 51°12.26 2°38.84 9.5 296 13.7 101420 62
2003-09-23 08:19:29 51°12.27 2°38.87 10.4 295 13.7 101420 62
2003-09-23 08:19:33 51°12.28 2°38.89 9.4 302 13.7 101420 62
2003-09-23 08:19:39 51°12.29 2°38.92 8.4 308 13.7 101420 62
2003-09-23 08:19:43 51°12.3 2°38.94 9.8 308 13.7 101420 62
2003-09-23 08:19:49 51°12.31 2°38.96 11.9 297 13.7 101420 62
2003-09-23 08:19:53 51°12.32 2°38.98 10.7 300 13.7 101420 63
2003-09-23 08:19:59 51°12.34 2°39.01 9.5 299 13.7 101420 63
2003-09-23 08:20:03 51°12.34 2°39.03 11.2 301 13.7 101430 62
2003-09-23 08:20:09 51°12.36 2°39.06 9.3   13.7 101430 62
2003-09-23 08:20:13 51°12.36 2°39.08 10.5 306 13.7 101410 61
2003-09-23 08:20:19 51°12.38 2°39.11 9.3 311 13.7 101410 61
2003-09-23 08:20:23 51°12.39 2°39.13 11.5 301 13.7 101430 62
2003-09-23 08:20:29 51°12.4 2°39.16 10.2 299 13.7 101430 62
2003-09-23 08:20:33 51°12.41 2°39.18 11.2 294 13.7 101430 62
2003-09-23 08:20:39 51°12.42 2°39.21 9.4 301 13.7 101430 62
2003-09-23 08:20:43 51°12.43 2°39.24 10.3 295 13.7 101420 61
2003-09-23 08:20:49 51°12.44 2°39.26 8.6 293 13.7 101420 61
2003-09-23 08:20:53 51°12.45 2°39.28 10.4 292 13.7 101430 61
2003-09-23 08:20:59 51°12.46 2°39.31 10.1 292 13.7 101430 61
2003-09-23 08:21:03 51°12.47 2°39.33 8.4 289 13.7 101420 61
2003-09-23 08:21:07 51°12.48 2°39.35 9.9 301 13.7 101420 61
2003-09-23 08:21:13 51°12.49 2°39.38 9.9 297 13.7 101430 61
2003-09-23 08:21:19 51°12.5 2°39.41 9.2 305 13.7 101430 61
2003-09-23 08:21:23 51°12.51 2°39.43 10.6 311 13.7 101420 60
2003-09-23 08:21:29 51°12.52 2°39.46 10.9 298 13.7 101420 60
2003-09-23 08:21:33 51°12.53 2°39.48 12.5 297 13.7 101430 62
2003-09-23 08:21:39 51°12.54 2°39.51 12.6 291 13.7 101430 62
2003-09-23 08:21:43 51°12.55 2°39.53 11.5 295 13.7 101420 63
2003-09-23 08:21:47 51°12.56 2°39.55 11.1 287 13.7 101420 63
2003-09-23 08:21:53 51°12.57 2°39.58 9.1 294 13.8 101430 63
2003-09-23 08:21:59 51°12.58 2°39.61 11.3 295 13.8 101430 63
2003-09-23 08:22:03 51°12.59 2°39.63 9.5 296 13.8 101400 62
2003-09-23 08:22:09 51°12.6 2°39.66 8.7 296 13.8 101400 62
2003-09-23 08:22:13 51°12.61 2°39.68 10.9 295 13.7 101420 61
2003-09-23 08:22:19 51°12.62 2°39.71 11.2 304 13.7 101420 61
2003-09-23 08:22:23 51°12.63 2°39.73 9.4 301 13.7 101420 60
2003-09-23 08:22:29 51°12.64 2°39.76 11.8 302 13.7 101420 60
2003-09-23 08:22:33 51°12.65 2°39.78 10.8 304 13.7 101430 62
2003-09-23 08:22:39 51°12.67 2°39.81 11.4 304 13.7 101430 62